Victoria, British Columbia

3:29 PM PDT on August 27, 2016 (GMT -0700)
Victoria International

Weather History for CYYJ - October, 2012

Change the Weather History Date:

Thursday, October 25, 2012

  Actual Average Record
Temperature  
Mean Temperature 46 °F -  
Max Temperature 51 °F 50 °F 60 °F (2015)
Min Temperature 41 °F 37 °F 35 °F (2007)
Degree Days  
Heating Degree Days 19    
Moisture  
Dew Point 42 °F    
Average Humidity 85    
Maximum Humidity 100    
Minimum Humidity 67    
Precipitation  
Precipitation 0.00 in 0.17 in - ()
Sea Level Pressure  
Sea Level Pressure 30.36 in    
Wind  
Wind Speed 2 mph ()    
Max Wind Speed 7 mph    
Max Gust Speed -    
Visibility 19.9 miles    
Events      
Averages and records for this station are not official NWS values.
T = Trace of Precipitation, MM = Missing Value Source: Averaged Metar Reports

Daily Weather History Graph

Daily Weather History Graph

Search for Another Location

Airport or City:

Trip Planner

Search our weather history database for the weather conditions in past years. The results will help you decide how hot, cold, wet, or windy it might be!

Date:

Astronomy

Oct. 25, 2012 Rise Set
Actual Time 7:50 AM PDT 6:04 PM PDT
Civil Twilight 7:17 AM PDT 6:36 PM PDT
Nautical Twilight 6:40 AM PDT 7:13 PM PDT
Astronomical Twilight 6:04 AM PDT 7:49 PM PDT
Moon 4:07 PM PDT (10/25) 3:35 AM PDT (10/25)
Length of Visible Light 11h 19m
Length of Day
10h 14m
Waxing Gibbous, 85% of the Moon is Illuminated
Oct 25
Waxing Gibbous
Oct 29
Full
Nov 6
Last Quarter
Nov 13
New
Nov 20
First Quarter

Hourly Weather History & Observations

Time (PDT) Temp. Windchill Dew Point Humidity Pressure Visibility Wind Dir Wind Speed Gust Speed Precip Events Conditions
12:00 AM 44.6 °F 41.4 °F 41.0 °F 87% 30.19 in 20.0 mi WNW 5.8 mph - N/A   Overcast
1:00 AM 42.8 °F - 41.0 °F 93% 30.22 in 20.0 mi Calm Calm - N/A   Overcast
2:00 AM 42.8 °F - 41.0 °F 93% 30.24 in 20.0 mi Calm Calm - N/A   Mostly Cloudy
3:00 AM 42.8 °F - 42.8 °F 100% 30.26 in 20.0 mi Calm Calm - N/A   Overcast
4:00 AM 42.8 °F - 41.0 °F 93% 30.28 in 20.0 mi Calm Calm - N/A   Mostly Cloudy
5:00 AM 43 °F - 40 °F 86% 30.29 in 19 mi Calm Calm - -   Mostly Cloudy
5:00 AM 42.8 °F 41.1 °F 41.0 °F 93% 30.29 in 20.0 mi NNW 3.5 mph - N/A   Mostly Cloudy
6:00 AM 42.8 °F - 39.2 °F 87% 30.32 in 20.0 mi Calm Calm - N/A   Mostly Cloudy
7:00 AM 42.8 °F - 41.0 °F 93% 30.34 in 20.0 mi WNW 2.3 mph - N/A   Mostly Cloudy
8:00 AM 42.8 °F - 41.0 °F 93% 30.35 in 20.0 mi Calm Calm - N/A   Mostly Cloudy
9:00 AM 44.6 °F - 42.8 °F 93% 30.38 in 20.0 mi Calm Calm - N/A   Mostly Cloudy
10:00 AM 46.4 °F - 41.0 °F 81% 30.40 in 30.0 mi Calm Calm - N/A   Mostly Cloudy
11:00 AM 48 °F - 43 °F 75% 30.41 in 28 mi Calm Calm - -   Mostly Cloudy
11:00 AM 48.2 °F - 42.8 °F 82% 30.41 in 30.0 mi Calm Calm - N/A   Mostly Cloudy
12:00 PM 48.2 °F - 41.0 °F 76% 30.43 in 30.0 mi Calm Calm - N/A   Mostly Cloudy
1:00 PM 48.2 °F - 41.0 °F 76% 30.43 in 30.0 mi East 2.3 mph - N/A   Mostly Cloudy
2:00 PM 50.0 °F - 42.8 °F 76% 30.41 in 30.0 mi ENE 6.9 mph - N/A   Mostly Cloudy
3:00 PM 50.0 °F - 41.0 °F 71% 30.43 in 30.0 mi WSW 5.8 mph - N/A   Mostly Cloudy
4:00 PM 50.0 °F - 41.0 °F 71% 30.42 in 30.0 mi East 5.8 mph - N/A   Mostly Cloudy
5:00 PM 49 °F - 41 °F 67% 30.41 in 28 mi ENE 4.6 mph - -   Overcast
5:00 PM 48.2 °F - 41.0 °F 76% 30.41 in 30.0 mi ENE 4.6 mph - N/A   Overcast
6:00 PM 46.4 °F - 41.0 °F 81% 30.41 in 30.0 mi ENE 2.3 mph - N/A   Mostly Cloudy
7:00 PM 44.6 °F 43.1 °F 41.0 °F 87% 30.40 in 30.0 mi SW 3.5 mph - N/A   Mostly Cloudy
8:00 PM 44.6 °F - 42.8 °F 93% 30.40 in 30.0 mi Calm Calm - N/A   Mostly Cloudy
9:00 PM 44.6 °F - 42.8 °F 93% 30.38 in 30.0 mi Calm Calm - N/A   Overcast
10:00 PM 44.6 °F - 42.8 °F 93% 30.37 in 30.0 mi West 2.3 mph - N/A   Overcast
11:00 PM 44 °F - 42 °F 91% 30.35 in 28 mi SW 2.3 mph - -   Overcast
11:00 PM 44.6 °F - 42.8 °F 93% 30.35 in 30.0 mi SW 2.3 mph - N/A   Overcast